"2009-02-05 00:00:30",602273,5.392,278.4,1.005,0.079,14.55,105.9479,14.5,15.43,7.973,0,110.5,13.28,15.30,240.4
"2009-02-05 00:01:00",602274,5.299,279.5,0.916,0.089,14.61,105.951,14.51,15.44,7.959,0,110.5,13.28,15.31,241.5
"2009-02-05 00:01:30",602275,5.358,278.1,0.846,0.103,14.59,105.9537,14.51,15.44,7.966,0,110.5,13.28,15.32,240.1
"2009-02-05 00:02:00",602276,5.326,278.8,0.719,0.14,14.66,105.9573,14.52,15.43,7.945,0,110.5,13.28,15.33,240.8
"2009-02-05 00:02:30",602277,5.377,279,0.775,0.103,14.58,105.9597,14.53,15.43,7.924,0,110.5,13.28,15.33,241.0
"2009-02-05 00:03:00",602278,5.083,278.8,0.67,0.076,14.63,105.9656,14.54,15.43,7.901,0,110.5,13.28,15.35,240.8
"2009-02-05 00:03:30",602279,5.127,280.2,0.485,0.043,14.6,105.9647,14.54,15.43,7.892,0,110.5,13.29,15.35,242.2
"2009-02-05 00:04:00",602280,5.195,281.1,1.03,0.069,14.55,105.968,14.55,15.43,7.89,0,110.5,13.29,15.35,243.1
"2009-02-05 00:04:30",602281,5.181,282.5,0.849,0.178,14.5,105.9755,14.57,15.43,7.879,0,110.5,13.29,15.37,244.5
"2009-02-05 00:05:00",602282,4.867,283,0.715,0.107,14.48,105.9788,14.58,15.42,7.851,0,110.5,13.29,15.38,245.0
"2009-02-05 00:05:30",602283,5.03,282,1.636,0.096,14.62,105.9806,14.58,15.44,7.83,0,110.5,13.29,15.39,244.0
"2009-02-05 00:06:00",602284,4.802,275.6,1.611,0.235,14.68,105.9805,14.58,15.44,7.713,0,110.5,13.29,15.39,237.6
"2009-02-05 00:06:30",602285,4.219,276.9,1.239,0.154,14.61,105.9868,14.6,15.46,7.745,0,110.5,13.29,15.40,238.9
"2009-02-05 00:07:00",602286,4.121,281.1,3.57,0.275,14.59,106.0012,14.64,15.47,7.742,0,110.5,13.29,15.44,243.1
"2009-02-05 00:07:30",602287,4.044,285.9,1.926,0.255,14.47,106.0043,14.64,15.47,7.8,0,110.5,13.29,15.45,247.9
"2009-02-05 00:08:00",602288,4.532,285.3,2.603,0.285,14.48,105.9975,14.63,15.47,7.824,0,110.5,13.28,15.43,247.3
"2009-02-05 00:08:30",602289,5.367,285,3.198,0.273,14.6,105.9843,14.59,15.46,7.78,0,110.5,13.28,15.40,247.0
"2009-02-05 00:09:00",602290,5.748,286.9,2.476,0.188,14.48,105.982,14.59,15.46,7.727,0,110.5,13.28,15.39,248.9
"2009-02-05 00:09:30",602291,5.709,289.9,3.968,0.188,14.55,105.9817,14.59,15.45,7.717,0,110.5,13.28,15.39,251.9
"2009-02-05 00:10:00",602292,5.381,288.1,2.755,0.446,14.67,105.9775,14.58,15.44,7.726,0,110.5,13.28,15.38,250.1
"2009-02-05 00:10:30",602293,5.345,288.5,1.756,0.209,14.6,105.9725,14.56,15.43,7.729,0,110.5,13.28,15.37,250.5
"2009-02-05 00:11:00",602294,5.383,288.2,1.119,0.072,14.6,105.9519,14.51,15.42,7.694,0,110.5,13.28,15.31,250.2
"2009-02-05 00:11:30",602295,5.33,286.9,2.35,0.113,14.73,105.948,14.5,15.41,7.687,0,110.5,13.28,15.30,248.9
"2009-02-05 00:12:00",602296,4.815,293,2.32,0.139,14.76,105.948,14.5,15.4,7.706,0,110.5,13.28,15.30,255.0
"2009-02-05 00:12:30",602297,5.073,292.4,2.284,0.265,14.78,105.948,14.5,15.4,7.708,0,110.5,13.29,15.30,254.4
"2009-02-05 00:13:00",602298,5.571,291,1.702,0.198,14.73,105.948,14.5,15.4,7.677,0,110.5,13.29,15.30,253.0
"2009-02-05 00:13:30",602299,5.881,291.2,5.312,1.114,15.41,105.9415,14.48,15.37,7.694,0,110.5,13.26,15.29,253.2
"2009-02-05 00:14:00",602300,6.249,294.9,6.943,1.325,16.71,105.9173,14.42,15.53,7.853,0,110.5,13.26,15.22,256.9
"2009-02-05 00:14:30",602301,5.18,290.9,1.346,0.056,14.64,105.9142,14.41,15.45,7.787,0,110.5,13.3,15.22,252.9
"2009-02-05 00:15:00",602302,6.207,295.9,6.401,1.374,16.14,105.9142,14.41,15.4,7.766,0,110.5,13.26,15.22,257.9
"2009-02-05 00:15:30",602303,5.074,290.2,0.618,0.067,13.99,105.9142,14.41,15.38,7.722,0,110.5,13.3,15.22,252.2
"2009-02-05 00:16:00",602304,5.13,290.2,0.618,0.053,13.77,105.9083,14.4,15.32,7.691,0,110.5,13.3,15.20,252.2
"2009-02-05 00:16:30",602305,5.051,289.3,0.667,0.06,13.78,105.901,14.38,15.32,7.714,0,110.5,13.3,15.18,251.3
"2009-02-05 00:17:00",602306,5.028,292.1,1.384,0.103,14.04,105.8991,14.37,15.37,7.792,0,110.5,13.3,15.18,254.1
"2009-02-05 00:17:30",602307,6.364,300.6,9.31,1.398,16.56,105.9033,14.39,15.44,7.899,0,110.5,13.26,15.19,262.6
"2009-02-05 00:18:00",602308,5.014,294,2.089,0.196,13.98,105.9076,14.4,15.32,7.811,0,110.5,13.3,15.20,256.0
"2009-02-05 00:18:30",602309,4.352,295.9,2.473,0.361,13.91,105.9181,14.42,15.3,7.797,0,110.5,13.3,15.23,257.9
"2009-02-05 00:19:00",602310,4.544,294.5,1.786,0.139,13.8,105.9292,14.45,15.32,7.813,0,110.4,13.3,15.25,256.5
"2009-02-05 00:19:30",602311,4.83,295.5,1.493,0.197,13.88,105.9399,14.48,15.31,7.827,0,110.5,13.3,15.28,257.5
"2009-02-05 00:20:00",602312,5.118,291.8,2.199,0.119,14.11,105.9234,14.44,15.33,7.886,0,110.5,13.3,15.24,253.8
"2009-02-05 00:20:30",602313,6.6,296.9,4.986,1.214,16.41,105.9162,14.42,15.45,7.986,0,110.4,13.26,15.22,258.9
"2009-02-05 00:21:00",602314,5.618,290,2.499,0.131,13.96,105.9159,14.42,15.32,7.869,0,110.4,13.3,15.22,252.0
"2009-02-05 00:21:30",602315,6.417,294.9,7.679,1.251,15.99,105.9083,14.4,15.44,8.01,0,110.4,13.26,15.20,256.9
"2009-02-05 00:22:00",602316,5.579,288.3,2.309,0.329,13.45,105.886,14.34,15.28,7.87,0,110.5,13.3,15.14,250.3
"2009-02-05 00:22:30",602317,6.943,298.5,7.056,1.245,15.34,105.8823,14.33,15.35,7.909,0,110.4,13.27,15.13,260.5
"2009-02-05 00:23:00",602318,6.587,298.4,7.924,1.194,15.17,105.8714,14.3,15.36,7.972,0,110.4,13.27,15.11,260.4
"2009-02-05 00:23:30",602319,4.388,302.3,5.053,0.423,12.89,105.848,14.24,15.17,7.921,0,110.4,13.31,15.05,264.3
"2009-02-05 00:24:00",602320,5.186,300.8,5.402,0.796,13.33,105.824,14.18,15.14,7.997,0,110.4,13.27,14.98,262.8
"2009-02-05 00:24:30",602321,4.614,306,8.35,0.852,13.42,105.8147,14.16,15.2,8.15,0,110.4,13.27,14.96,268.0
"2009-02-05 00:25:00",602322,5.491,320.2,8.33,1.094,15.7,105.8145,14.16,15.16,8.11,0,110.4,13.26,14.96,282.2
"2009-02-05 00:25:30",602323,4.755,322.3,3.482,0.29,13.31,105.8114,14.15,15.07,8.03,0,110.4,13.3,14.95,284.3
"2009-02-05 00:26:00",602324,4.343,320.5,7.888,0.606,13.3,105.8043,14.13,15.07,8,0,110.4,13.3,14.93,282.5
"2009-02-05 00:26:30",602325,4.841,326.1,13.31,0.31,13.55,105.7933,14.1,15.05,7.994,0,110.4,13.3,14.90,288.1
"2009-02-05 00:27:00",602326,5.349,334.9,6.165,1.233,14.22,105.7809,14.07,15.04,7.793,0,110.4,13.27,14.87,296.9
"2009-02-05 00:27:30",602327,5.962,343.4,7.602,1.3,16.43,105.7697,14.04,15.25,7.858,0,110.4,13.27,14.84,305.4
"2009-02-05 00:28:00",602328,6.747,350.2,6.432,1.365,16.88,105.7471,13.99,15.16,7.675,0,110.4,13.27,14.79,312.2
"2009-02-05 00:28:30",602329,4.789,346,4.741,0.652,13.13,105.748,13.99,15.03,7.58,0,110.4,13.3,14.79,308.0
"2009-02-05 00:29:00",602330,5.867,354.3,10.25,1.059,15.02,105.7519,14,15.02,7.597,0,110.5,13.27,14.80,316.3
"2009-02-05 00:29:30",602331,5.312,345.5,2.37,0.34,13.03,105.7519,14,15.02,7.693,0,110.4,13.31,14.80,307.5
"2009-02-05 00:30:00",602332,4.29,350.8,3.339,0.767,12.74,105.7567,14.01,14.93,7.621,0,110.4,13.31,14.81,312.8
"2009-02-05 00:30:30",602333,4.728,330.1,4.648,0.42,12.84,105.7596,14.02,14.92,7.785,0,110.4,13.31,14.82,292.1
"2009-02-05 00:31:00",602334,3.783,330.3,4.887,0.488,13.15,105.7644,14.03,14.92,7.877,0,110.4,13.31,14.83,292.3
"2009-02-05 00:31:30",602335,3.866,338.6,3.342,0.446,13.54,105.7683,14.04,15.01,8.03,0,110.4,13.31,14.84,300.6
"2009-02-05 00:32:00",602336,5.297,353.8,5.229,1.735,16.04,105.7766,14.06,15.05,7.869,0,110.4,13.28,14.86,315.8
"2009-02-05 00:32:30",602337,4.551,345.2,2.988,0.24,13.65,105.7799,14.07,14.95,7.475,0,110.4,13.32,14.87,307.2
"2009-02-05 00:33:00",602338,4.813,347.5,3.254,0.389,13.61,105.7817,14.07,14.94,7.309,0,110.4,13.32,14.87,309.5
"2009-02-05 00:33:30",602339,5.4,347.2,5.415,0.956,15.21,105.7829,14.08,15.06,7.519,0,110.4,13.29,14.88,309.2
"2009-02-05 00:34:00",602340,4.796,350.6,4.112,1.346,14.84,105.7829,14.08,15.02,7.62,0,110.4,13.29,14.88,312.6
"2009-02-05 00:34:30",602341,5.096,351.3,8.08,1.19,15.81,105.7834,14.08,15,7.703,0,110.4,13.29,14.88,313.3
"2009-02-05 00:35:00",602342,5.486,352.9,6.564,1.379,15.61,105.7868,14.09,15.11,7.7,0,110.4,13.29,14.89,314.9
"2009-02-05 00:35:30",602343,6.635,356.1,6.44,1.481,16.75,105.7832,14.08,15.14,7.46,0,110.4,13.29,14.88,318.1
"2009-02-05 00:36:00",602344,4.985,344.2,2.115,0.094,12.87,105.7829,14.08,15.04,7.293,0,110.4,13.32,14.88,306.2
"2009-02-05 00:36:30",602345,5.183,341.9,1.361,0.105,12.36,105.7829,14.08,14.95,7.141,0,110.4,13.32,14.88,303.9
"2009-02-05 00:37:00",602346,5.104,341,1.904,0.132,12.48,105.7803,14.07,14.93,7.113,0,110.4,13.32,14.87,303.0
"2009-02-05 00:37:30",602347,4.991,339.8,1.652,0.145,12.71,105.7668,14.04,14.92,7.135,0,110.4,13.33,14.84,301.8
"2009-02-05 00:38:00",602348,4.603,346,5.325,0.27,13.08,105.7505,13.99,14.92,7.134,0,110.4,13.33,14.79,308.0
"2009-02-05 00:38:30",602349,4.721,347.4,2.199,0.176,13.48,105.7491,13.99,14.91,7.141,0,110.4,13.33,14.79,309.4
"2009-02-05 00:39:00",602350,5.759,352.3,5.184,1.301,16.3,105.7491,13.99,15.11,7.355,0,110.4,13.29,14.79,314.3
"2009-02-05 00:39:30",602351,5.351,344.9,6.068,1.187,14.45,105.7491,13.99,14.92,7.169,0,110.3,13.29,14.79,306.9
"2009-02-05 00:40:00",602352,5.873,345.1,7.046,1.206,14.59,105.7491,13.99,14.98,7.195,0,110.4,13.29,14.79,307.1
"2009-02-05 00:40:30",602353,6.394,345.4,7.43,1.319,15.66,105.7465,13.98,14.95,7.128,0,110.4,13.29,14.78,307.4
"2009-02-05 00:41:00",602354,6.573,344.3,7.814,1.221,15.49,105.7389,13.96,14.95,7.151,0,110.3,13.29,14.76,306.3
"2009-02-05 00:41:30",602355,6.444,341.6,6.356,1.324,15.12,105.7257,13.93,15.06,7.295,0,110.3,13.29,14.73,303.6
"2009-02-05 00:42:00",602356,6.909,345.2,7.124,1.43,15.54,105.7152,13.9,15,7.212,0,110.3,13.29,14.70,307.2
"2009-02-05 00:42:30",602357,5.963,337.9,5.724,0.993,14.11,105.7161,13.91,15.01,7.196,0,110.3,13.29,14.71,299.9
"2009-02-05 00:43:00",602358,5.28,333.1,1.551,0.176,12.65,105.7197,13.91,14.83,7.041,0,110.3,13.32,14.72,295.1
"2009-02-05 00:43:30",602359,5.121,333,1.995,0.202,12.6,105.723,13.92,14.83,7.092,0,110.3,13.32,14.72,295.0
"2009-02-05 00:44:00",602360,5.205,331.5,0.857,0.199,12.67,105.7174,13.91,14.81,7.13,0,110.3,13.32,14.71,293.5
"2009-02-05 00:44:30",602361,5.151,326.9,4.639,0.178,13,105.7048,13.88,14.79,7.133,0,110.3,13.33,14.68,288.9
"2009-02-05 00:45:00",602362,4.135,311,5.443,0.36,13.17,105.7011,13.87,14.81,7.331,0,110.3,13.33,14.67,273.0
"2009-02-05 00:45:30",602363,5.294,311.9,10.73,1.113,16.64,105.7033,13.87,15.04,7.648,0,110.3,13.29,14.67,273.9
"2009-02-05 00:46:00",602364,5.779,316.1,7.255,1.425,16.22,105.6929,13.85,14.91,7.607,0,110.3,13.29,14.65,278.1
"2009-02-05 00:46:30",602365,5.422,315.6,7.156,1.404,15,105.6797,13.81,14.84,7.56,0,110.3,13.29,14.61,277.6
"2009-02-05 00:47:00",602366,5.6,319,8.06,1.409,14.76,105.6825,13.82,14.86,7.622,0,110.3,13.3,14.62,281.0
"2009-02-05 00:47:30",602367,4.795,315.4,1.652,0.159,12.55,105.6802,13.81,14.69,7.489,0,110.3,13.33,14.61,277.4
"2009-02-05 00:48:00",602368,5.372,319.5,6.366,1.194,14.92,105.6594,13.76,14.85,7.695,0,110.3,13.3,14.56,281.5
"2009-02-05 00:48:30",602369,4.277,319.7,3.027,0.722,12.73,105.6495,13.74,14.71,7.501,0,110.3,13.3,14.54,281.7
"2009-02-05 00:49:00",602370,3.977,319.3,1.338,0.105,12.52,105.6495,13.74,14.62,7.397,0,110.3,13.34,14.54,281.3
"2009-02-05 00:49:30",602371,3.921,318.4,1.663,0.116,12.6,105.6495,13.74,14.64,7.39,0,110.3,13.34,14.54,280.4
"2009-02-05 00:50:00",602372,4.143,318.6,0.994,0.243,12.79,105.6495,13.74,14.63,7.396,0,110.3,13.34,14.54,280.6
"2009-02-05 00:50:30",602373,4.284,316.6,2.57,0.146,12.97,105.6495,13.74,14.63,7.399,0,110.3,13.34,14.54,278.6
"2009-02-05 00:51:00",602374,4.083,311.4,4.495,1.009,14.06,105.6495,13.74,14.75,7.571,0,110.3,13.31,14.54,273.4
"2009-02-05 00:51:30",602375,5.731,317.8,5.763,1.229,17.3,105.6495,13.74,14.88,7.702,0,110.3,13.31,14.54,279.8
"2009-02-05 00:52:00",602376,4.5,310.3,5.274,1.39,15.41,105.6498,13.74,14.71,7.535,0,110.3,13.31,14.54,272.3
"2009-02-05 00:52:30",602377,4.083,312.6,7.25,1.206,15.03,105.6608,13.76,14.75,7.531,0,110.3,13.31,14.56,274.6
"2009-02-05 00:53:00",602378,3.857,306.5,7.728,1.189,14.29,105.6712,13.79,14.79,7.596,0,110.3,13.31,14.59,268.5
"2009-02-05 00:53:30",602379,2.504,305,6.287,0.231,12.45,105.6642,13.77,14.64,7.528,0,110.3,13.34,14.57,267.0
"2009-02-05 00:54:00",602380,2.589,285.4,3.319,0.092,12.49,105.6509,13.74,14.64,7.682,0,110.3,13.34,14.54,247.4
"2009-02-05 00:54:30",602381,2.902,290.1,4.498,0.839,12.75,105.6495,13.74,14.62,7.811,0,110.3,13.31,14.54,252.1
"2009-02-05 00:55:00",602382,3.639,291.3,7.586,1.362,15,105.6402,13.71,14.78,8.03,0,110.3,13.31,14.51,253.3
"2009-02-05 00:55:30",602383,2.828,287.1,1.114,0.098,12.6,105.6171,13.65,14.59,7.876,0,110.3,13.31,14.45,249.1
"2009-02-05 00:56:00",602384,2.705,286.2,1.839,0.059,12.42,105.6157,13.65,14.57,7.902,0,110.3,13.34,14.45,248.2
"2009-02-05 00:56:30",602385,2.622,285,0.567,0.038,12.52,105.616,13.65,14.57,7.954,0,110.3,13.34,14.45,247.0
"2009-02-05 00:57:00",602386,2.525,282.7,1.485,0.051,12.48,105.6211,13.66,14.55,7.961,0,110.3,13.35,14.46,244.7
"2009-02-05 00:57:30",602387,2.362,280.8,1.356,0.088,12.9,105.6227,13.67,14.54,7.976,0,110.3,13.35,14.47,242.8
"2009-02-05 00:58:00",602388,3.367,292.4,8.5,1.271,15.11,105.6256,13.67,14.7,8.01,0,110.3,13.31,14.47,254.4
"2009-02-05 00:58:30",602389,3.27,294.1,7.69,1.299,15.1,105.6261,13.68,14.73,8.02,0,110.3,13.31,14.48,256.1
"2009-02-05 00:59:00",602390,3.124,290.9,6.565,1.194,15.13,105.6309,13.69,14.75,8.08,0,110.3,13.31,14.49,252.9
"2009-02-05 00:59:30",602391,3.31,288.6,6.387,1.23,14.88,105.6327,13.69,14.71,8.05,0,110.3,13.31,14.49,250.6
"2009-02-05 01:00:00",602392,2.203,290.1,5.58,0.514,13.11,105.6354,13.7,14.71,8.01,0,110.3,13.35,14.50,252.1
"2009-02-05 01:00:30",602393,2.045,287.6,2.624,0.069,12.4,105.641,13.71,14.56,7.834,0,110.2,13.35,14.51,249.6
"2009-02-05 01:01:00",602394,2.183,288.8,2.515,0.164,12.41,105.6488,13.73,14.58,7.784,0,110.3,13.35,14.53,250.8
"2009-02-05 01:01:30",602395,2.376,294.9,2.695,0.13,12.57,105.6621,13.77,14.59,7.745,0,110.2,13.35,14.57,256.9
"2009-02-05 01:02:00",602396,2.56,306.9,6.057,0.523,13.58,105.681,13.82,14.75,7.791,0,110.2,13.35,14.62,268.9
"2009-02-05 01:02:30",602397,3.41,306.6,9.5,1.443,14.51,105.6853,13.83,14.66,7.663,0,110.3,13.31,14.63,268.6
"2009-02-05 01:03:00",602398,2.327,306.7,5.661,0.148,12.64,105.6853,13.83,14.65,7.761,0,110.2,13.35,14.63,268.7
"2009-02-05 01:03:30",602399,2.227,310.8,1.429,0.051,12.41,105.6853,13.83,14.65,7.717,0,110.2,13.36,14.63,272.8
"2009-02-05 01:04:00",602400,2.209,307.7,1.048,0.034,12.5,105.6853,13.83,14.66,7.77,0,110.2,13.36,14.63,269.7
"2009-02-05 01:04:30",602401,2.181,308.6,1.056,0.025,12.67,105.6853,13.83,14.65,7.828,0,110.2,13.36,14.63,270.6
"2009-02-05 01:05:00",602402,2.328,308,1.963,0.547,12.85,105.6791,13.81,14.65,7.932,0,110.2,13.32,14.61,270.0
"2009-02-05 01:05:30",602403,2.99,315.1,6.707,1.247,14.46,105.6514,13.74,14.79,8.2,0,110.2,13.32,14.54,277.1
"2009-02-05 01:06:00",602404,3.335,314,6.712,1.317,14.9,105.6309,13.69,14.78,8.25,0,110.2,13.32,14.49,276.0
"2009-02-05 01:06:30",602405,4.133,318,6.319,1.192,16.35,105.6024,13.61,14.68,8.23,0,110.3,13.32,14.41,280.0
"2009-02-05 01:07:00",602406,3.595,312.4,7.321,1.345,14.04,105.5812,13.56,14.6,8.19,0,110.3,13.33,14.36,274.4
"2009-02-05 01:07:30",602407,2.242,305.7,0.664,0.091,11.89,105.5505,13.48,14.49,8.17,0,110.2,13.36,14.28,267.7
"2009-02-05 01:08:00",602408,2.051,306.3,1.393,0.017,12.21,105.5499,13.48,14.43,8.17,0,110.2,13.36,14.28,268.3
"2009-02-05 01:08:30",602409,2.135,303.8,0.853,0.049,12.33,105.5499,13.48,14.42,8.11,0,110.2,13.36,14.28,265.8
"2009-02-05 01:09:00",602410,2.266,304.2,1.333,0.043,12.62,105.5778,13.55,14.43,8.05,0,110.2,13.36,14.35,266.2
"2009-02-05 01:09:30",602411,3.555,309.2,6.58,1.358,15.3,105.5837,13.57,14.62,8.15,0,110.2,13.33,14.37,271.2
"2009-02-05 01:10:00",602412,2.475,304.1,1.636,0.509,12.92,105.6055,13.62,14.53,7.954,0,110.2,13.33,14.42,266.1
"2009-02-05 01:10:30",602413,2.487,299.6,1.986,0.082,12.59,105.6179,13.65,14.49,7.903,0,110.2,13.37,14.45,261.6
"2009-02-05 01:11:00",602414,2.575,300,2.282,0.145,12.65,105.6188,13.66,14.52,7.894,0,110.2,13.37,14.46,262.0
"2009-02-05 01:11:30",602415,2.567,294.6,3.764,0.058,12.82,105.6339,13.7,14.53,7.75,0,110.2,13.37,14.50,256.6
"2009-02-05 01:12:00",602416,2.744,293.9,2.088,0.139,13.08,105.6567,13.75,14.56,7.736,0,110.2,13.37,14.55,255.9
"2009-02-05 01:12:30",602417,2.947,294,3.584,0.564,13.34,105.6631,13.77,14.58,7.699,0,110.2,13.34,14.57,256.0
"2009-02-05 01:13:00",602418,3.752,293.6,7.176,1.259,15.42,105.6666,13.78,14.77,7.904,0,110.2,13.34,14.58,255.6
"2009-02-05 01:13:30",602419,2.921,282.6,1.898,0.047,13.72,105.6687,13.78,14.68,7.911,0,110.2,13.37,14.58,244.6
"2009-02-05 01:14:00",602420,4.797,292.7,6.257,1.175,17.07,105.6741,13.8,14.85,8.08,0,110.3,13.34,14.60,254.7
"2009-02-05 01:14:30",602421,3.989,290.2,5.755,1.252,15.16,105.6819,13.82,14.83,8.05,0,110.2,13.33,14.62,252.2
"2009-02-05 01:15:00",602422,3.244,289.2,2.474,0.142,12.48,105.6833,13.82,14.65,7.999,0,110.2,13.36,14.62,251.2
"2009-02-05 01:15:30",602423,3.826,295.2,2.24,0.122,12.09,105.6812,13.82,14.63,8.04,0,110.2,13.36,14.62,257.2
"2009-02-05 01:16:00",602424,4.275,290.6,4.028,0.107,12.57,105.655,13.75,14.67,7.998,0,110.2,13.36,14.55,252.6
"2009-02-05 01:16:30",602425,5.529,293.4,6.204,1.153,14.69,105.6516,13.74,14.67,7.921,0,110.2,13.33,14.54,255.4
"2009-02-05 01:17:00",602426,4.976,295.7,6.22,1.145,13.84,105.622,13.66,14.71,7.976,0,110.2,13.33,14.46,257.7
"2009-02-05 01:17:30",602427,4.697,292.3,1.712,0.151,12.31,105.6192,13.66,14.55,7.776,0,110.2,13.36,14.46,254.3
"2009-02-05 01:18:00",602428,4.725,292.8,2.128,0.2,12.46,105.5975,13.6,14.5,7.839,0,110.2,13.36,14.40,254.8
"2009-02-05 01:18:30",602429,5.489,295,6.917,1.163,14.54,105.5856,13.57,14.62,8.07,0,110.2,13.33,14.37,257.0
"2009-02-05 01:19:00",602430,5.247,294.5,5.818,1.048,14.08,105.5854,13.57,14.57,8.09,0,110.2,13.33,14.37,256.5
"2009-02-05 01:19:30",602431,4.948,293.7,6.411,1.214,13.95,105.5698,13.53,14.52,8.03,0,110.2,13.34,14.33,255.7
"2009-02-05 01:20:00",602432,6.204,298.8,6.893,1.225,16.06,105.5563,13.5,14.69,8.19,0,110.2,13.34,14.30,260.8
"2009-02-05 01:20:30",602433,5.649,299,6.69,1.305,14.95,105.5518,13.48,14.55,8.06,0,110.2,13.34,14.28,261.0
"2009-02-05 01:21:00",602434,5.055,287.8,3.458,0.279,12.19,105.5518,13.48,14.41,7.858,0,110.2,13.37,14.28,249.8
"2009-02-05 01:21:30",602435,4.746,287.6,1.435,0.184,12.27,105.5518,13.48,14.39,7.959,0,110.2,13.38,14.28,249.6
"2009-02-05 01:22:00",602436,5.818,297,7.107,1.428,14.28,105.5518,13.48,14.55,8.07,0,110.2,13.34,14.28,259.0
"2009-02-05 01:22:30",602437,4.782,287.4,2.059,0.063,12.2,105.5397,13.45,14.43,8.05,0,110.2,13.38,14.25,249.4
"2009-02-05 01:23:00",602438,4.759,289.3,1.394,0.089,12.18,105.5179,13.4,14.33,8.14,0,110.2,13.38,14.20,251.3
"2009-02-05 01:23:30",602439,4.69,290.7,0.791,0.083,12.46,105.5109,13.38,14.37,8.23,0,110.2,13.38,14.18,252.7
"2009-02-05 01:24:00",602440,6.065,294.4,6.964,1.323,14.65,105.4917,13.33,14.34,8.12,0,110.2,13.34,14.13,256.4
"2009-02-05 01:24:30",602441,6.201,294.7,6.439,1.344,15.83,105.4976,13.35,14.49,8.18,0,110.2,13.34,14.14,256.7
"2009-02-05 01:25:00",602442,5.203,288.8,5.102,0.994,13.65,105.4926,13.33,14.39,8.16,0,110.2,13.34,14.13,250.8
"2009-02-05 01:25:30",602443,5.832,293.1,6.623,1.373,15.16,105.4846,13.31,14.37,8.14,0,110.2,13.34,14.11,255.1
"2009-02-05 01:26:00",602444,5.974,292.7,6.921,1.384,15.07,105.4841,13.31,14.42,8.2,0,110.2,13.34,14.11,254.7
"2009-02-05 01:26:30",602445,4.703,286.2,0.675,0.034,12.18,105.4841,13.31,14.23,8,0,110.2,13.38,14.11,248.2
"2009-02-05 01:27:00",602446,4.98,289.6,4.989,1.019,12.58,105.4841,13.31,14.22,7.964,0,110.2,13.34,14.11,251.6
"2009-02-05 01:27:30",602447,5.557,294.7,7.643,1.38,14.49,105.4841,13.31,14.39,8.13,0,110.2,13.34,14.11,256.7
"2009-02-05 01:28:00",602448,4.545,287.6,1.384,0.116,11.93,105.4782,13.3,14.19,7.915,0,110.2,13.38,14.10,249.6
"2009-02-05 01:28:30",602449,4.444,286.7,1.185,0.131,11.91,105.4635,13.26,14.18,7.945,0,110.2,13.38,14.06,248.7
"2009-02-05 01:29:00",602450,4.704,290.5,3.991,0.522,12.63,105.4502,13.22,14.29,8.19,0,110.2,13.34,14.02,252.5
"2009-02-05 01:29:30",602451,5.524,293.1,6.969,1.388,13.93,105.4502,13.22,14.19,8.15,0,110.2,13.34,14.02,255.1
"2009-02-05 01:30:00",602452,5.625,291.9,7.133,1.289,14.67,105.4452,13.21,14.28,8.28,0,110.2,13.35,14.01,253.9
"2009-02-05 01:30:30",602453,5.488,291.6,5.874,1.154,13.5,105.42,13.15,14.26,8.38,0,110.2,13.34,13.95,253.6
"2009-02-05 01:31:00",602454,5.131,293.1,5.047,0.928,13.47,105.4164,13.14,14.23,8.56,0,110.2,13.34,13.94,255.1
"2009-02-05 01:31:30",602455,5.569,294.9,6.861,1.524,13.61,105.411,13.12,14.07,8.39,0,110.2,13.34,13.92,256.9
"2009-02-05 01:32:00",602456,4.824,295.4,4.935,0.97,12.95,105.3828,13.05,14.2,8.51,0,110.2,13.34,13.85,257.4
"2009-02-05 01:32:30",602457,5.496,299,5.474,1.16,13.33,105.3825,13.05,14.03,8.51,0,110.2,13.34,13.85,261.0
"2009-02-05 01:33:00",602458,4.457,295.7,2.475,0.203,12.21,105.3693,13.02,14.1,8.66,0,110.2,13.38,13.82,257.7
"2009-02-05 01:33:30",602459,4.408,294.2,1.458,0.121,11.69,105.3487,12.96,13.95,8.54,0,110.2,13.37,13.76,256.2
"2009-02-05 01:34:00",602460,5.384,302.5,7.028,1.214,13.55,105.3487,12.96,14.08,8.76,0,110.2,13.34,13.76,264.5
"2009-02-05 01:34:30",602461,5.111,302.5,4.502,1.064,13.04,105.3487,12.96,14.01,8.71,0,110.2,13.34,13.76,264.5
"2009-02-05 01:35:00",602462,5.594,307.7,6.871,1.207,14.55,105.3487,12.96,14.05,8.73,0,110.2,13.34,13.76,269.7
"2009-02-05 01:35:30",602463,5.294,304.5,5.179,1.198,14.32,105.3487,12.96,14.09,8.7,0,110.2,13.34,13.76,266.5
"2009-02-05 01:36:00",602464,4.725,297,2.585,0.675,12.84,105.3656,13.01,13.93,8.47,0,110.2,13.34,13.81,259.0
"2009-02-05 01:36:30",602465,4.678,297.1,4.206,0.522,13.34,105.3834,13.05,14.08,8.52,0,110.2,13.35,13.85,259.1
"2009-02-05 01:37:00",602466,5.73,302.6,7.011,1.352,14.53,105.4023,13.1,13.99,8.2,0,110.2,13.35,13.90,264.6
"2009-02-05 01:37:30",602467,5.072,301.6,6.429,1.186,13.58,105.4176,13.14,14,8.12,0,110.2,13.35,13.94,263.6
"2009-02-05 01:38:00",602468,5.293,304,6.538,1.296,14.59,105.4394,13.2,14.19,8.19,0,110.2,13.35,14.00,266.0
"2009-02-05 01:38:30",602469,4.407,300.6,3.817,0.877,12.58,105.458,13.24,14.06,8.01,0,110.2,13.35,14.04,262.6
"2009-02-05 01:39:00",602470,4.089,301.1,1.196,0.091,12.37,105.4587,13.25,14.08,7.982,0,110.2,13.39,14.04,263.1
"2009-02-05 01:39:30",602471,5.35,308.6,5.661,1.26,14.4,105.474,13.29,14.25,8.13,0,110.2,13.35,14.08,270.6
"2009-02-05 01:40:00",602472,4.163,303.3,3.793,0.13,13.05,105.4877,13.32,14.24,8.02,0,110.2,13.39,14.12,265.3
"2009-02-05 01:40:30",602473,4.773,305.2,5.994,0.744,13.54,105.4942,13.34,14.29,8.01,0,110.2,13.35,14.14,267.2
"2009-02-05 01:41:00",602474,5.135,307.6,5.637,1.062,13.95,105.4945,13.34,14.21,7.912,0,110.2,13.35,14.14,269.6
"2009-02-05 01:41:30",602475,4.767,304.6,0.75,0.256,12.49,105.4954,13.34,14.17,7.905,0,110.2,13.39,14.14,266.6
"2009-02-05 01:42:00",602476,4.893,304.9,1.515,0.159,12.45,105.4907,13.33,14.19,8.01,0,110.2,13.39,14.13,266.9
"2009-02-05 01:42:30",602477,6.403,311.4,6.891,1.434,15.05,105.4693,13.27,14.29,8.14,0,110.2,13.35,14.07,273.4
"2009-02-05 01:43:00",602478,5.293,303.4,1.569,0.261,12.58,105.4657,13.26,14.23,8.15,0,110.2,13.39,14.06,265.4
"2009-02-05 01:43:30",602479,6.777,308.1,7.621,1.31,14.5,105.4638,13.26,14.22,8.06,0,110.2,13.35,14.06,270.1
"2009-02-05 01:44:00",602480,4.957,297.5,3.621,0.516,12.48,105.4687,13.27,14.13,7.856,0,110.2,13.39,14.07,259.5
"2009-02-05 01:44:30",602481,7.005,306.7,5.178,1.201,14.44,105.4705,13.28,14.24,7.91,0,110.2,13.35,14.08,268.7
"2009-02-05 01:45:00",602482,6.785,306.6,7.25,1.083,14.48,105.4692,13.27,14.31,8.06,0,110.2,13.35,14.07,268.6
"2009-02-05 01:45:30",602483,6.503,305.4,6.239,1.269,14.32,105.4434,13.21,14.26,8.2,0,110.2,13.35,14.01,267.4
"2009-02-05 01:46:00",602484,5.609,302.2,3.985,0.874,13.11,105.4376,13.19,14.22,8.26,0,110.2,13.35,13.99,264.2
"2009-02-05 01:46:30",602485,5.354,299,1.975,0.101,12.16,105.4115,13.13,14.05,8.23,0,110.2,13.39,13.92,261.0
"2009-02-05 01:47:00",602486,6.403,303.6,7.298,1.198,14.1,105.4096,13.12,14.2,8.38,0,110.2,13.35,13.92,265.6
"2009-02-05 01:47:30",602487,6.375,303.6,5.794,1.273,13.84,105.3923,13.08,14.06,8.29,0,110.2,13.35,13.87,265.6
"2009-02-05 01:48:00",602488,5.335,302.2,5.679,1.207,13.48,105.3763,13.04,14.16,8.49,0,110.2,13.35,13.83,264.2
"2009-02-05 01:48:30",602489,6.067,301.9,7.878,1.101,13.86,105.3718,13.02,14.01,8.45,0,110.2,13.35,13.82,263.9